User: anonymous   Login
Location: Vancouver
(49.2500°N, 123.1330°W)
Time: 18:17:52
(UTC-08:00)
Language:

Cosmos 1408 Rocket - Orbit

View from above orbital plane
View from above orbital plane
View from above satellite
View from above satellite

Ground track
Ground track

The orbit data is extracted from the following two-line orbital elements,

1 13553U 82092B   14332.51610464  .00000614  00000-0  71272-4 0   791
2 13553 082.5694 021.9108 0020523 239.9116 242.4155 14.83689492738866
Epoch (UTC): 28 November 2014 12:23:11
Eccentricity: 0.0020523
inclination: 82.5694°
perigee height: 603 km
apogee height: 632 km
right ascension of ascending node: 21.9108°
argument of perigee: 239.9116°
revolutions per day: 14.83689492
mean anomaly at epoch: 242.4155°
orbit number at epoch: 73886

The dashed part of the orbit path shows where the satellite is in the earth's shadow,  

DLR